SCP
0 0 0 0 0 0 0 0 0 0 0 0 0 0 0 0 0 0 0 0 0 1 1 1 0 0 0 0 0 0 0 0 0 0 0 0 0 0 0 0 0 0 0
0 0 0 0 0 0 0 0 0 0 0 0 0 0 0 0 0 0 0 0 0 0 0 0 0 0 0 0 0 0 0 0 0 0 0 0 0 0 0 0 0 0 0
0 0 0 0 0 0 0 0 0 0 0 0 0 0 0 0 0 1 0 0 0 0 0 0 0 0 0 0 0 0 0 0 0 0 0 0 0 0 0 0 0 0 0
0 0 0 0 0 0 0 0 0 0 0 0 0 0 0 0 0 1 1 0 0 0 0 0 0 0 0 0 0 0 0 0 0 0 0 0 0 0 0 0 0 0 0
0 0 0 0 0 0 0 0 0 0 0 0 0 0 0 0 0 1 1 1 1 0 0 0 0 0 0 0 0 0 0 0 0 0 0 0 0 0 0 0 0 0 0
0 0 0 0 0 0 0 0 0 0 0 0 0 0 0 0 0 0 1 1 1 0 0 0 0 1 0 0 0 0 0 0 0 0 0 0 0 0 0 0 0 0 0
0 0 0 0 0 0 0 0 0 0 0 0 0 0 0 0 0 0 0 0 0 0 0 0 0 0 0 0 0 0 0 0 0 0 0 0 0 0 0 0 0 0 0
-0 -0 0 0 0 0 0 0 0 0 0 0 0 0 0 0 0 0 0 0 0 0 0 0 0 0 0 0 0 0 0 0 0 0 0 0 0 0 0 0 0 0 0
-0 -0 0 0 0 0 0 0 0 0 0 0 0 0 0 0 0 0 0 0 0 0 0 0 0 0 0 0 0 0 0 0 0 0 0 0 0 0 0 0 0 0 0
-0 -0 0 0 0 0 0 0 0 0 0 0 0 0 0 0 0 0 0 0 0 0 0 0 0 0 0 0 0 0 0 0 0 0 0 0 0 0 0 0 0 0 0
-0 0 0 0 0 0 0 0 0 0 0 0 0 0 0 0 0 0 0 0 0 0 0 0 0 0 0 0 0 0 0 0 0 0 0 0 0 0 0 0 0 0 0
-0 0 0 0 0 0 0 0 0 0 0 0 0 0 0 0 0 0 0 0 0 0 0 0 0 0 0 0 0 0 0 0 0 0 0 0 0 0 0 0 0 0 0
0 0 0 0 0 0 0 0 0 0 0 0 0 0 0 0 0 0 0 0 0 0 0 0 0 0 0 0 0 0 0 0 0 0 0 0 0 0 0 0 0 0 0
0 0 0 0 0 0 0 0 0 0 0 0 0 0 0 0 0 0 0 0 0 0 0 0 0 0 0 0 0 0 0 0 0 0 0 0 0 0 0 0 0 0 0
0 0 0 0 0 0 0 0 0 0 0 0 0 0 0 0 0 0 0 0 0 0 0 0 0 0 0 0 0 0 0 0 0 0 0 0 0 0 0 0 0 0 0
0 0 0 0 0 0 0 0 0 0 0 0 -0 -0 -0 -0 -0 -0 0 0 0 0 0 0 0 0 0 0 0 0 0 0 0 0 0 0 0 0 0 0 0 0 0
0 0 0 0 0 0 0 0 0 0 0 0 -0 -0 -0 -0 -0 -0 0 0 0 0 0 0 0 0 0 0 0 0 0 0 0 0 0 0 0 0 0 0 0 0 0
0 0 0 0 0 0 0 0 0 0 0 0 -0 -0 -0 -0 0 0 0 0 0 0 0 0 0 0 0 0 0 0 0 0 0 0 0 0 0 0 0 0 0 0 0
0 0 0 0 0 0 0 0 0 0 0 0 -0 -0 -0 0 0 0 0 0 0 0 0 0 0 0 0 0 0 0 0 0 0 0 0 0 0 0 0 0 0 0 0
0 0 0 0 0 0 0 0 0 0 0 0 -0 -0 -0 -0 0 0 0 0 0 0 0 0 0 0 0 0 0 0 0 0 0 0 0 0 0 0 0 0 0 0 0
0 0 0 0 0 0 0 0 0 0 0 0 0 0 0 0 0 0 0 0 0 0 0 0 0 0 0 0 0 0 0 0 0 0 0 0 0 0 0 0 0 0 0
0 0 0 0 0 0 0 0 0 0 0 0 0 0 0 0 0 0 0 0 0 0 0 0 0 0 0 0 0 0 0 0 0 0 0 0 0 0 0 0 0 0 0
0 0 0 0 0 0 0 0 0 0 0 0 0 0 0 0 0 0 0 0 0 0 0 0 0 0 0 0 0 0 0 0 0 0 0 0 0 0 0 0 0 0 0
0 0 0 0 0 0 0 0 0 0 0 0 0 0 0 0 0 0 0 0 0 0 0 0 0 0 0 0 0 0 0 0 0 0 0 0 0 0 0 0 0 0 0
0 0 0 0 0 0 0 0 0 0 0 0 0 0 0 0 0 0 0 0 0 0 0 0 0 0 0 0 0 0 0 0 0 0 0 0 0 0 0 0 0 0 0
0 0 0 0 0 0 0 0 0 0 0 0 0 0 0 0 0 0 0 0 0 0 0 0 0 0 0 0 0 0 0 0 0 0 0 0 0 0 0 0 0 0 0
Wind_Speed
14 13 13 12 12 11 11 10 9 9 7 6 5 5 4 4 5 6 8 8 8 8 7 6 7 7 6 7 8 7 8 7 7 6 6 7 8 8 6 6 6 7 6
15 15 14 14 13 12 11 11 10 9 8 6 6 5 6 5 5 6 7 9 10 9 8 8 7 7 6 8 8 7 6 6 6 6 6 6 7 7 8 7 7 8 7
16 16 16 15 14 13 12 10 10 10 8 8 6 5 5 5 5 6 6 8 10 9 9 10 8 8 8 7 8 8 8 7 6 7 5 5 6 5 7 9 8 8 6
15 15 15 15 14 13 12 11 10 10 8 7 6 6 5 5 5 5 5 6 8 9 9 10 10 9 8 8 8 8 7 7 6 5 6 6 3 3 4 5 7 8 8
15 15 15 14 14 13 11 10 10 9 8 7 6 6 5 5 4 4 5 5 5 7 8 8 9 9 8 9 9 9 9 7 7 6 5 6 4 6 5 4 5 5 6
15 14 15 14 13 12 11 10 10 9 8 7 6 5 5 5 4 4 3 3 3 3 5 6 7 7 7 8 8 8 10 8 9 7 6 5 5 6 5 6 5 4 3
14 14 15 15 14 13 12 11 10 9 9 8 7 6 6 5 5 4 3 2 1 2 3 4 4 5 6 6 7 7 8 9 9 8 6 5 5 4 4 5 5 4 3
13 14 14 13 12 12 12 12 10 9 9 8 7 7 6 4 4 4 4 3 1 1 1 3 3 3 4 5 6 6 7 8 8 9 8 6 5 5 5 4 4 4 4
13 13 13 13 13 12 12 11 11 10 10 9 8 7 7 7 7 7 6 4 4 3 2 1 2 2 2 3 4 4 6 6 7 7 8 6 5 4 4 4 4 4 4
12 12 12 12 11 11 11 12 12 11 11 10 9 7 8 8 8 7 8 7 7 6 4 3 2 2 1 1 2 3 3 4 5 5 6 6 4 4 4 4 4 3 3
11 11 10 10 10 10 10 11 11 11 11 10 10 10 9 9 9 9 9 8 7 7 7 6 5 4 3 1 0 1 3 3 3 3 5 6 6 4 4 4 4 4 3
10 9 10 10 10 11 11 12 12 12 11 10 10 10 10 10 10 10 9 9 8 8 7 7 7 6 5 4 3 2 1 2 3 3 3 3 3 4 4 3 4 4 4
10 9 9 9 9 10 10 11 11 11 10 10 11 11 11 11 11 10 10 10 9 9 8 8 8 7 6 6 5 4 2 1 1 2 3 3 4 3 3 3 3 3 3
8 9 9 9 9 9 9 10 10 10 10 10 10 11 11 10 10 10 10 10 10 9 9 9 8 7 7 6 5 4 4 3 2 1 1 2 2 3 4 4 4 4 3
8 9 9 8 8 8 9 9 9 9 9 9 10 10 10 10 10 10 10 10 10 10 9 9 9 9 7 8 8 5 4 4 4 4 3 4 5 5 2 1 2 3 3
8 8 8 8 8 8 8 9 9 9 9 9 10 9 10 10 10 10 10 10 10 10 10 10 10 10 8 10 11 7 5 5 5 5 4 4 4 5 3 4 4 3 2
6 7 7 7 7 7 7 8 8 8 8 9 9 9 10 10 10 10 10 10 9 10 10 10 9 10 11 12 11 9 5 5 5 4 4 3 3 2 4 6 6 7 7
5 6 6 5 5 5 6 6 6 7 8 8 9 9 9 9 9 10 10 9 9 9 9 9 9 8 11 13 10 7 5 6 6 5 4 3 3 3 3 5 6 7 7
4 5 5 4 4 5 5 5 6 7 7 8 8 8 8 9 9 9 9 8 8 8 8 8 9 9 10 14 12 8 5 5 6 5 6 4 3 4 2 4 7 7 7
3 3 3 3 3 4 4 4 6 6 7 7 7 7 8 8 9 9 8 7 6 7 7 7 8 9 10 13 14 10 4 4 4 5 5 8 7 5 3 3 6 7 6
2 2 2 2 3 3 3 4 5 6 6 5 6 6 7 7 8 7 7 7 7 7 7 7 7 8 9 11 13 13 5 5 4 4 4 6 7 6 5 2 4 5 5
0 1 1 1 1 2 2 3 5 4 4 4 4 5 6 6 6 7 7 7 7 7 7 7 7 7 7 9 11 12 10 7 5 5 4 6 8 8 7 5 8 5 3
0 0 1 0 1 1 1 2 4 3 3 3 4 4 5 5 5 6 6 6 6 6 6 6 6 6 6 7 8 9 9 9 6 6 8 8 7 6 8 9 6 3 3
1 1 1 1 1 2 1 1 3 3 3 3 3 2 3 4 5 4 5 5 6 6 6 6 6 6 6 8 7 5 4 4 5 5 7 8 8 7 7 6 4 4 4
3 2 2 1 1 2 2 2 3 4 3 3 2 1 2 2 3 3 4 4 6 6 6 6 6 6 6 8 10 8 6 5 4 3 4 5 5 5 5 5 5 4 4
4 4 3 3 2 2 2 3 3 4 4 2 2 1 0 0 1 1 2 2 1 3 4 6 7 5 6 7 8 9 9 8 6 3 5 5 5 5 5 5 5 4 4
Wind_Direction
352 354 348 344 340 338 335 332 328 328 326 317 311 301 283 266 251 241 239 238 238 238 235 233 231 224 218 218 220 218 217 220 222 226 221 219 225 227 209 224 222 218 207
351 352 347 344 341 337 333 328 327 327 325 313 300 286 288 276 258 247 239 235 232 229 227 225 224 220 217 219 217 212 218 214 214 219 222 226 219 219 225 220 228 232 205
348 347 345 342 339 337 333 328 327 323 323 318 303 294 281 269 258 248 240 235 233 228 225 226 224 222 217 217 215 206 210 212 213 222 215 219 228 213 212 218 220 229 228
348 346 342 341 340 338 334 329 327 326 328 323 308 303 293 284 279 271 255 241 235 232 226 223 221 221 218 218 214 207 208 211 210 215 229 241 252 226 216 212 224 225 227
350 346 344 341 338 339 336 331 330 331 333 329 317 303 299 295 290 282 264 253 239 234 228 221 219 219 218 218 211 203 205 209 212 208 210 224 240 246 244 230 216 213 223
352 351 349 345 344 344 342 338 337 338 341 338 335 330 322 316 312 301 281 260 243 232 225 222 218 217 216 215 210 207 209 213 215 213 212 207 211 224 233 239 236 230 217
355 355 352 351 351 350 350 349 347 345 349 351 354 354 351 342 337 328 312 298 261 228 210 205 204 206 208 210 211 209 211 213 213 213 213 214 220 218 221 234 241 242 234
357 356 354 353 353 353 357 357 355 354 357 360 2 8 12 1 359 354 351 351 330 273 182 182 183 190 205 214 217 215 214 213 213 214 211 210 215 215 216 224 225 232 230
1 358 357 359 358 359 2 1 2 6 5 6 10 15 14 18 21 22 24 24 28 32 60 120 147 156 179 208 215 218 217 214 213 215 214 213 210 208 213 215 217 226 231
1 1 0 0 2 2 7 12 15 15 16 16 17 19 22 29 33 33 33 32 30 32 44 58 70 92 112 170 195 204 212 213 213 210 211 207 203 198 200 203 206 214 226
360 2 5 5 9 12 14 18 19 19 17 18 20 24 24 27 34 35 33 32 35 39 43 46 51 55 58 72 120 219 201 202 199 203 205 204 196 187 187 193 197 202 205
4 8 10 11 15 17 19 21 21 21 20 21 24 27 29 33 35 33 31 33 36 39 44 49 53 51 49 46 44 38 161 191 190 195 186 179 176 180 180 183 190 195 195
11 14 15 15 15 17 19 21 22 21 22 24 28 30 32 32 32 30 31 33 34 36 38 41 44 45 42 43 41 43 50 65 152 191 186 173 172 177 177 184 187 190 190
11 13 15 18 19 20 21 23 24 23 24 27 29 32 33 34 35 34 35 36 35 36 36 39 41 40 39 34 32 40 47 60 69 84 128 146 159 167 175 183 185 178 177
13 14 15 18 19 21 22 24 25 25 27 31 33 31 33 36 37 38 39 40 38 37 36 39 41 40 38 30 21 28 45 58 64 67 73 70 64 57 62 164 183 176 172
10 10 14 18 19 23 24 25 25 26 29 34 35 32 32 34 35 36 37 38 37 36 37 37 38 38 36 32 26 15 46 58 68 67 67 85 87 86 90 72 61 47 174
4 6 11 17 16 21 22 26 25 27 33 37 35 32 33 33 33 34 36 35 38 38 37 36 34 37 35 29 31 20 40 56 55 60 70 73 76 98 116 118 123 90 59
357 1 4 15 18 24 26 29 34 34 39 38 36 32 30 33 34 35 34 31 34 38 36 33 33 34 33 25 25 12 47 63 60 54 53 64 82 72 100 122 110 96 78
344 349 351 360 15 24 18 26 42 44 43 38 34 32 32 32 31 31 30 29 29 34 36 35 31 30 31 24 18 3 58 63 63 58 51 38 79 72 34 125 115 106 94
342 347 344 354 28 34 21 26 43 47 46 40 37 37 35 31 30 28 25 28 31 31 35 40 35 33 31 27 20 6 49 62 65 62 64 50 45 52 8 130 126 118 114
349 336 343 24 31 26 20 38 48 53 52 48 46 42 40 38 32 28 26 28 33 33 35 41 40 38 33 31 29 18 28 49 61 61 56 55 48 50 39 44 104 111 123
25 341 348 61 54 17 13 58 61 67 72 70 62 52 43 36 36 35 31 32 30 34 34 36 38 33 36 33 32 34 33 22 57 54 53 62 59 61 55 69 86 99 120
175 325 318 133 114 86 11 57 95 115 115 98 78 64 58 47 37 34 33 34 32 30 31 30 29 28 26 36 42 46 44 33 51 63 61 64 61 84 81 76 83 110 110
193 222 221 192 120 100 102 82 129 163 162 127 102 83 62 55 51 36 31 31 27 25 26 25 22 23 30 23 11 20 55 80 82 88 93 89 72 76 84 91 82 76 73
193 212 219 183 147 148 147 148 170 189 189 161 146 123 71 40 35 50 35 24 43 25 7 12 13 15 22 21 8 7 22 28 38 61 88 81 83 81 79 77 73 75 90
195 199 195 201 191 174 162 161 185 208 216 196 177 175 165 21 352 13 105 131 38 51 27 17 4 45 39 22 28 35 36 30 8 55 79 73 70 71 73 79 81 76 75